Year,Month,Day,Hour,Minute,Value (Times are PST for windgust in km/hr)
2015,11,16,05,03,3.20
2015,11,16,05,04,4.80
2015,11,16,08,40,24.20
2015,11,16,08,41,27.40
2015,11,16,08,42,27.40
2015,11,16,08,43,32.20
2015,11,16,08,44,30.60
2015,11,16,08,45,16.10
2015,11,16,08,46,17.70
2015,11,16,08,47,19.30
2015,11,16,08,48,19.30
2015,11,16,08,49,24.20
2015,11,16,08,50,38.60
2015,11,16,08,51,30.60
2015,11,16,08,52,40.20
2015,11,16,08,53,38.60
2015,11,16,08,54,32.20
2015,11,16,08,55,29.00
2015,11,16,08,56,30.60
2015,11,16,08,57,37.00
2015,11,16,08,58,35.40
2015,11,16,08,59,27.40
2015,11,16,09,00,29.00
2015,11,16,09,01,30.60
2015,11,16,09,02,30.60
2015,11,16,09,03,29.00
2015,11,16,09,04,19.30
2015,11,16,09,05,27.40
2015,11,16,09,06,27.40
2015,11,16,09,07,38.60
2015,11,16,09,08,33.80
2015,11,16,09,09,22.50
2015,11,16,09,10,32.20
2015,11,16,09,11,30.60
2015,11,16,09,12,22.50
2015,11,16,09,13,25.70
2015,11,16,09,14,22.50
2015,11,16,09,15,22.50
2015,11,16,09,16,24.20
2015,11,16,09,17,46.70
2015,11,16,09,18,25.70
2015,11,16,09,19,29.00
2015,11,16,09,20,25.70
2015,11,16,09,21,20.90
2015,11,16,09,22,32.20
2015,11,16,09,23,29.00
2015,11,16,09,24,25.70
2015,11,16,09,25,20.90
2015,11,16,09,26,27.40
2015,11,16,09,27,37.00
2015,11,16,09,28,35.40
2015,11,16,09,29,29.00
2015,11,16,09,30,30.60
2015,11,16,09,31,29.00
2015,11,16,09,32,20.90
2015,11,16,09,33,25.70
2015,11,16,09,34,24.20
2015,11,16,09,35,24.20
2015,11,16,09,36,17.70
2015,11,16,09,37,38.60
2015,11,16,09,38,27.40
2015,11,16,09,39,24.20
2015,11,16,09,40,35.40
2015,11,16,09,41,38.60
2015,11,16,09,42,27.40
2015,11,16,09,43,22.50
2015,11,16,09,44,29.00
2015,11,16,09,45,24.20
2015,11,16,09,46,25.70
2015,11,16,09,47,30.60
2015,11,16,09,48,27.40
2015,11,16,09,49,32.20
2015,11,16,09,50,27.40
2015,11,16,09,51,35.40
2015,11,16,09,52,27.40
2015,11,16,09,53,37.00
2015,11,16,09,54,30.60
2015,11,16,09,55,29.00
2015,11,16,09,56,19.30
2015,11,16,09,57,19.30
2015,11,16,09,58,24.20
2015,11,16,09,59,17.70
2015,11,16,10,00,29.00
2015,11,16,10,01,33.80
2015,11,16,10,02,25.70
2015,11,16,10,03,27.40
2015,11,16,10,04,25.70
2015,11,16,10,05,11.30
2015,11,16,10,06,9.60
2015,11,16,10,07,19.30
2015,11,16,10,08,19.30
2015,11,16,10,09,14.50
2015,11,16,10,10,14.50
2015,11,16,10,11,16.10
2015,11,16,10,12,14.50
2015,11,16,10,13,11.30
2015,11,16,10,14,19.30
2015,11,16,10,15,24.20
2015,11,16,10,16,20.90
2015,11,16,10,17,19.30
2015,11,16,10,18,17.70
2015,11,16,10,19,22.50
2015,11,16,10,20,24.20
2015,11,16,10,21,25.70
2015,11,16,10,22,22.50
2015,11,16,10,23,19.30
2015,11,16,10,24,17.70
2015,11,16,10,25,14.50
2015,11,16,10,26,24.20
2015,11,16,10,27,12.90
2015,11,16,10,28,19.30
2015,11,16,10,29,19.30
2015,11,16,10,30,20.90
2015,11,16,10,31,8.10
2015,11,16,10,32,6.40
2015,11,16,10,33,17.70
2015,11,16,10,34,14.50
2015,11,16,10,35,14.50
2015,11,16,10,36,17.70
2015,11,16,10,37,9.60
2015,11,16,10,38,11.30
2015,11,16,10,39,17.70
2015,11,16,10,40,16.10
2015,11,16,10,41,16.10
2015,11,16,10,42,16.10
2015,11,16,10,43,16.10
2015,11,16,10,44,14.50
2015,11,16,10,45,11.30
2015,11,16,10,46,9.60
2015,11,16,10,47,9.60
2015,11,16,10,48,11.30
2015,11,16,10,49,17.70
2015,11,16,10,50,16.10
2015,11,16,10,51,12.90
2015,11,16,10,52,9.60
2015,11,16,10,53,14.50
2015,11,16,10,54,16.10
2015,11,16,10,55,14.50
2015,11,16,10,56,6.40
2015,11,16,10,57,8.10
2015,11,16,10,58,9.60
2015,11,16,10,59,8.10
2015,11,16,11,00,11.30
2015,11,16,11,01,17.70
2015,11,16,11,02,20.90
2015,11,16,11,03,19.30
2015,11,16,11,04,16.10
2015,11,16,11,05,16.10
2015,11,16,11,06,11.30
2015,11,16,11,07,16.10
2015,11,16,11,08,19.30
2015,11,16,11,09,14.50
2015,11,16,11,10,11.30
2015,11,16,11,11,11.30
2015,11,16,11,12,9.60
2015,11,16,11,13,17.70
2015,11,16,11,14,17.70
2015,11,16,11,15,11.30
2015,11,16,11,16,17.70
2015,11,16,11,17,22.50
2015,11,16,11,18,11.30
2015,11,16,11,19,11.30
2015,11,16,11,20,12.90
2015,11,16,11,21,25.70
2015,11,16,11,22,22.50
2015,11,16,11,23,19.30
2015,11,16,11,24,16.10
2015,11,16,11,25,16.10
2015,11,16,11,26,17.70
2015,11,16,11,27,11.30
2015,11,16,11,28,16.10
2015,11,16,11,29,19.30
2015,11,16,11,30,16.10
2015,11,16,11,31,20.90
2015,11,16,11,32,27.40
2015,11,16,11,33,16.10
2015,11,16,11,34,22.50
2015,11,16,11,35,17.70
2015,11,16,11,36,17.70
2015,11,16,11,37,11.30
2015,11,16,11,38,9.60
2015,11,16,11,39,11.30
2015,11,16,11,40,11.30
2015,11,16,11,41,16.10
2015,11,16,11,42,14.50
2015,11,16,11,43,11.30
2015,11,16,11,44,20.90
2015,11,16,11,45,17.70
2015,11,16,11,46,22.50
2015,11,16,11,47,19.30
2015,11,16,11,48,17.70
2015,11,16,11,49,8.10
2015,11,16,11,50,9.60
2015,11,16,11,51,14.50
2015,11,16,11,52,11.30
2015,11,16,11,53,11.30
2015,11,16,11,54,17.70
2015,11,16,11,55,22.50
2015,11,16,11,56,11.30
2015,11,16,11,57,17.70
2015,11,16,11,58,14.50
2015,11,16,11,59,16.10
2015,11,16,12,00,17.70
2015,11,16,12,01,22.50
2015,11,16,12,02,9.60
2015,11,16,12,03,11.30
2015,11,16,12,04,16.10
2015,11,16,12,05,17.70
2015,11,16,12,06,11.30
2015,11,16,12,07,6.40
2015,11,16,12,08,6.40
2015,11,16,12,09,3.20
2015,11,16,12,10,14.50
2015,11,16,12,11,12.90
2015,11,16,12,12,16.10
2015,11,16,12,13,9.60
2015,11,16,12,14,11.30
2015,11,16,12,15,20.90
2015,11,16,12,16,14.50
2015,11,16,12,17,17.70
2015,11,16,12,18,14.50
2015,11,16,12,19,12.90
2015,11,16,12,20,14.50
2015,11,16,12,21,11.30
2015,11,16,12,22,17.70
2015,11,16,12,23,20.90
2015,11,16,12,24,12.90
2015,11,16,12,25,19.30
2015,11,16,12,26,14.50
2015,11,16,12,27,24.20
2015,11,16,12,28,19.30
2015,11,16,12,29,24.20
2015,11,16,12,30,19.30
2015,11,16,12,31,17.70
2015,11,16,12,32,17.70
2015,11,16,12,33,19.30
2015,11,16,12,34,20.90
2015,11,16,12,35,24.20
2015,11,16,12,36,17.70
2015,11,16,12,37,14.50
2015,11,16,12,38,14.50
2015,11,16,12,39,16.10
2015,11,16,12,40,12.90
2015,11,16,12,41,17.70
2015,11,16,12,42,14.50
2015,11,16,12,43,20.90
2015,11,16,12,44,17.70
2015,11,16,12,45,11.30
2015,11,16,12,46,14.50
2015,11,16,12,47,22.50
2015,11,16,12,48,19.30
2015,11,16,12,49,20.90
2015,11,16,12,50,20.90
2015,11,16,12,51,17.70
2015,11,16,12,52,16.10
2015,11,16,12,53,17.70
2015,11,16,12,54,20.90
2015,11,16,12,55,22.50
2015,11,16,12,56,25.70
2015,11,16,12,57,27.40
2015,11,16,12,58,24.20
2015,11,16,12,59,25.70
2015,11,16,13,00,22.50
2015,11,16,13,01,24.20
2015,11,16,13,02,22.50
2015,11,16,13,03,22.50
2015,11,16,13,04,19.30
2015,11,16,13,05,19.30
2015,11,16,13,06,14.50
2015,11,16,13,07,14.50
2015,11,16,13,08,19.30
2015,11,16,13,09,25.70
2015,11,16,13,10,29.00
2015,11,16,13,11,22.50
2015,11,16,13,12,20.90
2015,11,16,13,13,16.10
2015,11,16,13,14,19.30
2015,11,16,13,15,22.50
2015,11,16,13,16,22.50
2015,11,16,13,17,20.90
2015,11,16,13,18,22.50
2015,11,16,13,19,17.70
2015,11,16,13,20,22.50
2015,11,16,13,21,19.30
2015,11,16,13,22,22.50
2015,11,16,13,23,20.90
2015,11,16,13,24,16.10
2015,11,16,13,25,22.50
2015,11,16,13,26,16.10
2015,11,16,13,27,16.10
2015,11,16,13,28,24.20
2015,11,16,13,29,20.90
2015,11,16,13,30,19.30
2015,11,16,13,31,14.50
2015,11,16,13,32,11.30
2015,11,16,13,33,20.90
2015,11,16,13,34,17.70
2015,11,16,13,35,12.90
2015,11,16,13,36,17.70
2015,11,16,13,37,22.50
2015,11,16,13,38,22.50
2015,11,16,13,39,9.60
2015,11,16,13,40,14.50
2015,11,16,13,41,11.30
2015,11,16,13,42,8.10
2015,11,16,13,43,17.70
2015,11,16,13,44,24.20
2015,11,16,13,45,20.90
2015,11,16,13,46,19.30
2015,11,16,13,47,14.50
2015,11,16,13,48,16.10
2015,11,16,13,49,16.10
2015,11,16,13,50,16.10
2015,11,16,13,51,30.60
2015,11,16,13,52,19.30
2015,11,16,13,53,17.70
2015,11,16,13,54,14.50
2015,11,16,13,55,11.30
2015,11,16,13,56,8.10
2015,11,16,13,57,11.30
2015,11,16,13,58,11.30
2015,11,16,13,59,16.10
2015,11,16,14,00,8.10
2015,11,16,14,01,16.10
2015,11,16,14,02,17.70
2015,11,16,14,03,17.70
2015,11,16,14,04,14.50
2015,11,16,14,05,11.30
2015,11,16,14,06,9.60
2015,11,16,14,07,12.90
2015,11,16,14,08,8.10
2015,11,16,14,09,11.30
2015,11,16,14,10,14.50
2015,11,16,14,11,11.30
2015,11,16,14,12,8.10
2015,11,16,14,13,11.30
2015,11,16,14,14,16.10
2015,11,16,14,15,14.50
2015,11,16,14,16,16.10
2015,11,16,14,17,11.30
2015,11,16,14,18,11.30
2015,11,16,14,19,9.60
2015,11,16,14,20,17.70
2015,11,16,14,21,16.10
2015,11,16,14,22,11.30
2015,11,16,14,23,14.50
2015,11,16,14,24,11.30
2015,11,16,14,25,9.60
2015,11,16,14,26,16.10
2015,11,16,14,27,11.30
2015,11,16,14,28,6.40
2015,11,16,14,29,14.50
2015,11,16,14,30,14.50
2015,11,16,14,31,19.30
2015,11,16,14,32,19.30
2015,11,16,14,33,16.10
2015,11,16,14,34,14.50
2015,11,16,14,35,9.60
2015,11,16,14,36,12.90
2015,11,16,14,37,9.60
2015,11,16,14,38,8.10
2015,11,16,14,39,8.10
2015,11,16,14,40,11.30
2015,11,16,14,42,4.80
2015,11,16,14,43,4.80
2015,11,16,14,44,6.40
2015,11,16,14,45,4.80
2015,11,16,14,46,11.30
2015,11,16,14,47,9.60
2015,11,16,14,48,8.10
2015,11,16,14,49,9.60
2015,11,16,14,50,11.30
2015,11,16,14,51,3.20
2015,11,16,14,52,16.10
2015,11,16,14,53,11.30
2015,11,16,14,54,3.20
2015,11,16,14,55,8.10
2015,11,16,14,56,8.10
2015,11,16,14,57,8.10
2015,11,16,14,58,9.60
2015,11,16,14,59,14.50
2015,11,16,15,00,8.10
2015,11,16,15,01,8.10
2015,11,16,15,02,14.50
2015,11,16,15,03,17.70
2015,11,16,15,04,11.30
2015,11,16,15,05,11.30
2015,11,16,15,06,8.10
2015,11,16,15,07,14.50
2015,11,16,15,08,16.10
2015,11,16,15,09,11.30
2015,11,16,15,10,16.10
2015,11,16,15,11,16.10
2015,11,16,15,12,17.70
2015,11,16,15,13,12.90
2015,11,16,15,14,9.60
2015,11,16,15,15,11.30
2015,11,16,15,16,11.30
2015,11,16,15,17,9.60
2015,11,16,15,18,8.10
2015,11,16,15,19,6.40
2015,11,16,15,20,9.60
2015,11,16,15,21,4.80
2015,11,16,15,24,4.80
2015,11,16,15,25,3.20
2015,11,16,15,26,6.40
2015,11,16,15,27,6.40
2015,11,16,15,28,6.40
2015,11,16,15,30,11.30
2015,11,16,15,31,8.10
2015,11,16,15,32,4.80
2015,11,16,15,35,16.10
2015,11,16,15,36,17.70
2015,11,16,15,37,4.80
2015,11,16,15,38,9.60
2015,11,16,15,39,6.40
2015,11,16,15,40,6.40
2015,11,16,15,41,8.10
2015,11,16,15,42,3.20
2015,11,16,15,43,6.40
2015,11,16,15,44,6.40
2015,11,16,15,45,4.80
2015,11,16,15,48,1.60
2015,11,16,15,49,6.40
2015,11,16,15,50,8.10
2015,11,16,15,51,4.80
2015,11,16,15,53,4.80
2015,11,16,15,54,4.80
2015,11,16,16,21,11.30
2015,11,16,16,22,8.10
2015,11,16,16,23,6.40
2015,11,16,16,24,4.80
2015,11,16,16,25,6.40
2015,11,16,16,26,8.10
2015,11,16,16,27,4.80
2015,11,16,16,28,3.20
2015,11,16,16,29,1.60
2015,11,16,16,31,4.80
2015,11,16,16,32,6.40
2015,11,16,16,33,6.40
2015,11,16,16,34,4.80
2015,11,16,16,35,4.80
2015,11,16,16,36,6.40
2015,11,16,16,42,6.40
2015,11,16,16,43,1.60
2015,11,16,16,45,9.60
2015,11,16,16,46,6.40
2015,11,16,16,47,3.20
2015,11,16,16,51,4.80
2015,11,16,17,00,17.70
2015,11,16,17,01,12.90
2015,11,16,17,02,14.50
2015,11,16,17,03,11.30
2015,11,16,17,04,9.60
2015,11,16,17,05,9.60
2015,11,16,17,06,16.10
2015,11,16,17,07,12.90
2015,11,16,17,08,14.50
2015,11,16,17,09,16.10
2015,11,16,17,10,9.60
2015,11,16,17,11,11.30
2015,11,16,17,12,9.60
2015,11,16,17,13,17.70
2015,11,16,17,14,12.90
2015,11,16,17,15,6.40
2015,11,16,17,16,9.60
2015,11,16,17,17,8.10
2015,11,16,17,18,8.10
2015,11,16,17,19,4.80
2015,11,16,17,20,9.60
2015,11,16,17,21,11.30
2015,11,16,17,22,9.60
2015,11,16,17,23,9.60
2015,11,16,17,24,9.60
2015,11,16,17,25,14.50
2015,11,16,17,26,16.10
2015,11,16,17,27,9.60
2015,11,16,17,28,14.50
2015,11,16,17,29,19.30
2015,11,16,17,30,11.30
2015,11,16,17,31,16.10
2015,11,16,17,32,12.90
2015,11,16,17,33,11.30
2015,11,16,17,34,14.50
2015,11,16,17,35,9.60
2015,11,16,17,36,6.40
2015,11,16,17,37,16.10
2015,11,16,17,38,17.70
2015,11,16,17,39,9.60
2015,11,16,17,40,11.30
2015,11,16,17,41,16.10
2015,11,16,17,42,16.10
2015,11,16,17,43,8.10
2015,11,16,17,44,6.40
2015,11,16,17,45,11.30
2015,11,16,17,46,11.30
2015,11,16,17,47,9.60
2015,11,16,17,50,1.60
2015,11,16,17,52,8.10
2015,11,16,17,53,11.30
2015,11,16,17,54,9.60
2015,11,16,17,55,1.60
2015,11,16,17,57,9.60
2015,11,16,17,58,9.60
2015,11,16,17,59,9.60
2015,11,16,18,00,9.60
2015,11,16,18,01,6.40
2015,11,16,18,03,6.40
2015,11,16,18,04,9.60
2015,11,16,18,05,9.60
2015,11,16,18,06,8.10
2015,11,16,18,07,4.80
2015,11,16,18,08,8.10
2015,11,16,18,09,6.40
2015,11,16,18,11,8.10
2015,11,16,18,12,9.60
2015,11,16,18,13,4.80
2015,11,16,18,14,6.40
2015,11,16,18,15,6.40
2015,11,16,18,16,4.80
2015,11,16,18,17,3.20
2015,11,16,18,18,8.10
2015,11,16,18,19,6.40
2015,11,16,18,20,4.80
2015,11,16,18,21,3.20
2015,11,16,18,25,3.20
2015,11,16,18,26,3.20
2015,11,16,18,28,1.60
2015,11,16,18,29,3.20
2015,11,16,18,33,3.20
2015,11,16,18,34,9.60
2015,11,16,18,35,9.60
2015,11,16,18,36,8.10
2015,11,16,18,37,9.60
2015,11,16,18,38,9.60
2015,11,16,18,42,8.10
2015,11,16,18,43,9.60
2015,11,16,18,44,4.80
2015,11,16,18,45,6.40
2015,11,16,18,48,6.40
2015,11,16,18,49,4.80
2015,11,16,19,25,4.80
2015,11,16,19,26,4.80
2015,11,16,19,29,1.60
2015,11,16,19,32,1.60
2015,11,16,19,45,1.60
2015,11,16,20,59,1.60
2015,11,16,21,18,1.60
2015,11,16,21,30,4.80
2015,11,16,21,31,6.40
2015,11,16,21,32,8.10
2015,11,16,21,33,8.10
2015,11,16,21,34,11.30
2015,11,16,21,35,14.50
2015,11,16,21,36,9.60
2015,11,16,21,37,16.10
2015,11,16,21,38,16.10
2015,11,16,21,39,19.30
2015,11,16,21,40,16.10
2015,11,16,21,41,17.70
2015,11,16,21,42,19.30
2015,11,16,21,43,14.50
2015,11,16,21,44,14.50
2015,11,16,21,45,11.30
2015,11,16,21,46,9.60
2015,11,16,21,47,11.30
2015,11,16,21,48,17.70
2015,11,16,21,49,14.50
2015,11,16,21,50,12.90
2015,11,16,21,51,9.60
2015,11,16,21,52,9.60
2015,11,16,21,53,11.30
2015,11,16,21,54,9.60
2015,11,16,21,55,16.10
2015,11,16,21,56,11.30
2015,11,16,21,57,11.30
2015,11,16,21,58,11.30
2015,11,16,21,59,17.70
2015,11,16,22,00,14.50
2015,11,16,22,01,16.10
2015,11,16,22,02,14.50
2015,11,16,22,03,14.50
2015,11,16,22,04,16.10
2015,11,16,22,05,16.10
2015,11,16,22,06,14.50
2015,11,16,22,07,14.50
2015,11,16,22,08,19.30
2015,11,16,22,09,22.50
2015,11,16,22,10,24.20
2015,11,16,22,11,20.90
2015,11,16,22,12,22.50
2015,11,16,22,13,16.10
2015,11,16,22,14,17.70
2015,11,16,22,15,22.50
2015,11,16,22,16,17.70
2015,11,16,22,17,16.10
2015,11,16,22,18,17.70
2015,11,16,22,19,14.50
2015,11,16,22,20,16.10
2015,11,16,22,21,17.70
2015,11,16,22,22,17.70
2015,11,16,22,23,19.30
2015,11,16,22,24,12.90
2015,11,16,22,25,14.50
2015,11,16,22,26,9.60
2015,11,16,22,27,11.30
2015,11,16,22,28,14.50
2015,11,16,22,29,14.50
2015,11,16,22,30,17.70
2015,11,16,22,31,20.90
2015,11,16,22,32,9.60
2015,11,16,22,33,17.70
2015,11,16,22,34,9.60
2015,11,16,22,35,11.30
2015,11,16,22,36,20.90
2015,11,16,22,37,17.70
2015,11,16,22,38,14.50
2015,11,16,22,39,11.30
2015,11,16,22,40,14.50
2015,11,16,22,41,11.30
2015,11,16,22,42,14.50
2015,11,16,22,43,11.30
2015,11,16,22,44,12.90
2015,11,16,22,45,9.60
2015,11,16,22,46,14.50
2015,11,16,22,47,17.70
2015,11,16,22,48,12.90
2015,11,16,22,49,9.60
2015,11,16,22,50,11.30
2015,11,16,22,51,9.60
2015,11,16,22,52,19.30
2015,11,16,22,53,8.10
2015,11,16,22,54,8.10
2015,11,16,22,55,9.60
2015,11,16,22,56,20.90
2015,11,16,22,57,9.60
2015,11,16,22,58,8.10
2015,11,16,22,59,9.60
2015,11,16,23,00,16.10
2015,11,16,23,01,16.10
2015,11,16,23,02,9.60
2015,11,16,23,03,11.30
2015,11,16,23,04,9.60
2015,11,16,23,05,8.10
2015,11,16,23,06,6.40
2015,11,16,23,07,6.40
2015,11,16,23,08,6.40
2015,11,16,23,09,8.10
2015,11,16,23,10,8.10
2015,11,16,23,11,11.30
2015,11,16,23,12,9.60
2015,11,16,23,13,9.60
2015,11,16,23,14,6.40
2015,11,16,23,15,8.10
2015,11,16,23,16,9.60
2015,11,16,23,17,8.10
2015,11,16,23,18,4.80
2015,11,16,23,23,8.10
2015,11,16,23,24,4.80
2015,11,16,23,25,8.10
2015,11,16,23,26,8.10
2015,11,16,23,27,8.10
2015,11,16,23,28,9.60
2015,11,16,23,29,11.30
2015,11,16,23,30,14.50
2015,11,16,23,31,14.50
2015,11,16,23,32,8.10
2015,11,16,23,33,11.30
2015,11,16,23,34,8.10
2015,11,16,23,35,12.90
2015,11,16,23,36,11.30
2015,11,16,23,37,9.60
2015,11,16,23,38,16.10
2015,11,16,23,39,11.30
2015,11,16,23,40,11.30
2015,11,16,23,41,9.60
2015,11,16,23,42,11.30
2015,11,16,23,43,8.10
2015,11,16,23,44,9.60
2015,11,16,23,45,11.30
2015,11,16,23,46,14.50
2015,11,16,23,47,11.30
2015,11,16,23,48,11.30
2015,11,16,23,49,11.30
2015,11,16,23,50,8.10
2015,11,16,23,51,9.60
2015,11,16,23,52,11.30
2015,11,16,23,53,9.60
2015,11,16,23,54,9.60
2015,11,16,23,55,9.60
2015,11,16,23,56,12.90
2015,11,16,23,57,11.30
2015,11,16,23,58,4.80
2015,11,16,23,59,8.10
